Observations for Trim Market St
| Time | AQI | Temp °C | Hum % | Pres Pa | CO μg/m³ | H₂S μg/m³ | NO μg/m³ | NO₂ μg/m³ | O₃ μg/m³ | SO₂ μg/m³ | PM1 μg/m³ | PM2.5 μg/m³ | PM10 μg/m³ |
|---|---|---|---|---|---|---|---|---|---|---|---|---|---|
| Saturday 11 July 2026 | |||||||||||||
| 16:05 | 1 | 37.3 | 32 | 66,564 | 0 | 0 | 0 | 5.72 | 19.53 | 2.62 | 3.56 | 7.57 | 8.38 |
| 16:03 | 1 | 37.3 | 32 | 66,545 | 0 | 5.3 | 0 | 12 | 18.39 | 2.32 | 3.56 | 7.56 | 10.09 |
| 16:01 | 1 | 37.2 | 32 | 66,515 | 0 | 11.32 | 0 | 6.44 | 35.26 | 2.99 | 2.85 | 5.94 | 6.53 |
| 15:58 | 1 | 37.3 | 31 | 66,523 | 0 | 1.83 | 0 | 3.24 | 20.75 | 2.9 | 2.14 | 5.96 | 6.55 |
| 15:56 | 1 | 37.3 | 31 | 66,527 | 0 | 0.59 | 0 | 3.74 | 23.4 | 2.94 | 2.85 | 6.5 | 6.67 |
| 15:51 | 1 | 37.4 | 31 | 66,588 | 0 | 6.94 | 0 | 6.14 | 22.4 | 2.96 | 2.85 | 6.51 | 6.67 |
| 15:49 | 1 | 37.5 | 31 | 66,602 | 0 | 3.22 | 0 | 4.25 | 21.47 | 3.32 | 2.14 | 5.98 | 6.58 |
| 15:48 | 1 | 37.6 | 31 | 66,614 | 0 | 6.08 | 0 | 8.73 | 28.47 | 2.4 | 3.56 | 5.99 | 6.58 |
| 15:44 | 1 | 37.8 | 31 | 66,645 | 0 | 1.1 | 0 | 11.05 | 13.41 | 2.39 | 3.56 | 7.6 | 8.38 |
| 15:43 | 1 | 37.8 | 31 | 66,625 | 0 | 4.13 | 0 | 10.44 | 20.62 | 2.83 | 4.99 | 7.59 | 8.38 |
| 15:42 | 1 | 37.8 | 31 | 66,602 | 0 | 20.98 | 0 | 23.68 | 13.03 | 0.93 | 2.85 | 5.99 | 7.52 |
| 15:41 | 1 | 37.7 | 31 | 66,602 | 0 | 14.6 | 0 | 25.43 | 21.57 | 4.1 | 3.56 | 7.08 | 8.39 |
| 15:40 | 1 | 37.7 | 31 | 66,606 | 0 | 5.53 | 0 | 5.63 | 17.77 | 2.63 | 2.85 | 6.54 | 7.52 |
| 15:38 | 1 | 37.8 | 30 | 66,657 | 0 | 0 | 0 | 1.83 | 18.3 | 2.8 | 2.85 | 6.01 | 6.61 |
| 15:37 | 1 | 37.8 | 30 | 66,649 | 0 | 5.76 | 0 | 9.02 | 28.6 | 2.57 | 2.85 | 6.55 | 6.66 |
| 15:36 | 1 | 37.9 | 30 | 66,637 | 0 | 9.4 | 0 | 5.7 | 39.56 | 3.11 | 2.14 | 5.46 | 5.8 |
| 15:35 | 1 | 37.9 | 30 | 66,651 | 0 | 10.7 | 0 | 5.62 | 35.55 | 3.17 | 2.85 | 6.02 | 7.52 |
| 15:33 | 1 | 38 | 30 | 66,682 | 0 | 0 | 0 | 1.9 | 7.97 | 2.94 | 2.14 | 6.02 | 6.62 |
| 15:32 | 1 | 38.1 | 30 | 66,686 | 0 | 0 | 0 | 0 | 16.6 | 3.6 | 2.85 | 6.56 | 7.52 |
| 15:31 | 1 | 38.1 | 30 | 66,677 | 0 | 0 | 0 | 3.69 | 30.56 | 2.86 | 3.56 | 6.57 | 6.66 |